When you browse on this site, cookies collect data to enhance your experience and personalize the content and advertising you see.
Visit our Privacy Policy to learn more. By continuing to use the site, you agree to this use of cookies and data.
  • In Romania
  • List of Countries
  • For 7 days
  • Water Temperature
  • Weather Map
  • Weather Widgets
  • user-avatar
    Login

    Hourly Weather Konstantyna

    Today, 27 May, Wednesday

    Time Temperature Precipitation Wind Pressure Humidity
    00:00 +16°C° 0 mm 1 mps 714 mmHg 76%
    01:00 +16°C° 0 mm 1 mps 713 mmHg 76%
    02:00 +16°C° 0 mm 1 mps 713 mmHg 75%
    03:00 +16°C° 0 mm 1 mps 713 mmHg 75%
    04:00 +18°C° 0 mm 1 mps 713 mmHg 71%
    05:00 +19°C° 0 mm 1 mps 714 mmHg 67%
    06:00 +19°C° 0 mm 1 mps 714 mmHg 63%
    07:00 +21°C° 0 mm 1 mps 714 mmHg 57%
    08:00 +23°C° 0 mm 2 mps 715 mmHg 51%
    09:00 +25°C° 0 mm 3 mps 715 mmHg 45%
    10:00 +26°C° 0 mm 3 mps 715 mmHg 43%
    11:00 +27°C° 0 mm 3 mps 715 mmHg 40%
    12:00 +28°C° 0 mm 3 mps 715 mmHg 37%
    13:00 +28°C° 0 mm 4 mps 715 mmHg 38%
    14:00 +28°C° 0 mm 5 mps 715 mmHg 39%
    15:00 +28°C° 0 mm 6 mps 714 mmHg 40%
    16:00 +26°C° 0.2 mm 5 mps 714 mmHg 46%
    17:00 +23°C° 0.2 mm 4 mps 714 mmHg 52%
    18:00 +21°C° 0.2 mm 3 mps 714 mmHg 57%
    19:00 +20°C° 0 mm 3 mps 714 mmHg 59%
    20:00 +18°C° 0 mm 2 mps 715 mmHg 62%
    21:00 +17°C° 0 mm 2 mps 715 mmHg 64%
    22:00 +16°C° 0 mm 2 mps 715 mmHg 63%
    23:00 +16°C° 0 mm 2 mps 715 mmHg 63%

    Tomorrow, 28 May, Thursday

    Time Temperature Precipitation Wind Pressure Humidity
    00:00 +16°C° 0 mm 2 mps 714 mmHg 62%
    01:00 +16°C° 0 mm 1 mps 714 mmHg 61%
    02:00 +16°C° 0 mm 1 mps 714 mmHg 59%
    03:00 +16°C° 0 mm 1 mps 714 mmHg 58%
    04:00 +18°C° 0 mm 1 mps 714 mmHg 56%
    05:00 +18°C° 0 mm 1 mps 714 mmHg 55%
    06:00 +19°C° 0 mm 1 mps 714 mmHg 54%
    07:00 +20°C° 0 mm 1 mps 715 mmHg 49%
    08:00 +22°C° 0 mm 1 mps 715 mmHg 45%
    09:00 +24°C° 0 mm 2 mps 716 mmHg 41%
    10:00 +26°C° 0 mm 2 mps 715 mmHg 39%
    11:00 +27°C° 0 mm 2 mps 715 mmHg 37%
    12:00 +29°C° 0 mm 3 mps 715 mmHg 35%
    13:00 +28°C° 0 mm 3 mps 714 mmHg 38%
    14:00 +27°C° 0 mm 3 mps 714 mmHg 41%
    15:00 +26°C° 0 mm 4 mps 713 mmHg 45%
    16:00 +25°C° 0.3 mm 3 mps 713 mmHg 50%
    17:00 +24°C° 0.3 mm 3 mps 712 mmHg 56%
    18:00 +21°C° 0.3 mm 2 mps 712 mmHg 62%
    19:00 +20°C° 0.1 mm 2 mps 712 mmHg 67%
    20:00 +20°C° 0.1 mm 1 mps 712 mmHg 72%
    21:00 +17°C° 0.1 mm 0 mps 712 mmHg 77%
    22:00 +16°C° 0.1 mm 0 mps 711 mmHg 77%
    23:00 +16°C° 0.1 mm 0 mps 711 mmHg 77%

    Day after tomorrow, 29 May, Friday

    Time Temperature Precipitation Wind Pressure Humidity
    00:00 +18°C° 0.1 mm 1 mps 711 mmHg 77%
    01:00 +18°C° 0 mm 1 mps 710 mmHg 75%
    02:00 +18°C° 0 mm 1 mps 710 mmHg 73%
    03:00 +18°C° 0 mm 1 mps 710 mmHg 71%
    04:00 +19°C° 0.1 mm 1 mps 710 mmHg 68%
    05:00 +20°C° 0.1 mm 1 mps 710 mmHg 64%
    06:00 +21°C° 0.1 mm 1 mps 710 mmHg 60%
    07:00 +23°C° 0 mm 2 mps 711 mmHg 55%
    08:00 +25°C° 0 mm 4 mps 711 mmHg 50%
    09:00 +26°C° 0 mm 5 mps 711 mmHg 45%
    10:00 +27°C° 0 mm 5 mps 711 mmHg 42%
    11:00 +28°C° 0 mm 5 mps 711 mmHg 40%
    12:00 +29°C° 0 mm 5 mps 710 mmHg 37%
    13:00 +28°C° 0.2 mm 5 mps 710 mmHg 43%
    14:00 +27°C° 0.2 mm 4 mps 709 mmHg 49%
    15:00 +26°C° 0.2 mm 4 mps 709 mmHg 55%
    16:00 +23°C° 1.2 mm 4 mps 708 mmHg 61%
    17:00 +22°C° 1.2 mm 3 mps 708 mmHg 68%
    18:00 +21°C° 1.2 mm 2 mps 708 mmHg 74%
    19:00 +20°C° 0.5 mm 2 mps 708 mmHg 78%
    20:00 +20°C° 0.5 mm 1 mps 708 mmHg 82%
    21:00 +17°C° 0.5 mm 0 mps 708 mmHg 86%
    22:00 +17°C° 0.1 mm 0 mps 708 mmHg 87%
    23:00 +16°C° 0.1 mm 0 mps 707 mmHg 87%

    30 May, Saturday

    Time Temperature Precipitation Wind Pressure Humidity
    00:00 +16°C° 0.1 mm 0 mps 707 mmHg 87%
    01:00 +16°C° 0.1 mm 0 mps 707 mmHg 88%
    02:00 +15°C° 0.1 mm 0 mps 707 mmHg 88%
    03:00 +15°C° 0.1 mm 0 mps 706 mmHg 89%
    04:00 +18°C° 0.1 mm 1 mps 707 mmHg 87%
    05:00 +18°C° 0.1 mm 1 mps 707 mmHg 85%
    06:00 +19°C° 0.1 mm 1 mps 707 mmHg 83%
    07:00 +19°C° 0 mm 2 mps 707 mmHg 79%
    08:00 +20°C° 0 mm 2 mps 708 mmHg 75%
    09:00 +21°C° 0 mm 3 mps 708 mmHg 70%
    10:00 +22°C° 0.1 mm 3 mps 708 mmHg 64%
    11:00 +23°C° 0.1 mm 4 mps 709 mmHg 57%
    12:00 +26°C° 0.1 mm 4 mps 709 mmHg 50%
    13:00 +25°C° 0 mm 5 mps 709 mmHg 49%
    14:00 +25°C° 0 mm 5 mps 709 mmHg 47%
    15:00 +25°C° 0 mm 5 mps 709 mmHg 45%
    16:00 +23°C° 0 mm 5 mps 708 mmHg 49%
    17:00 +21°C° 0 mm 4 mps 708 mmHg 53%
    18:00 +20°C° 0 mm 3 mps 708 mmHg 57%
    19:00 +18°C° 0 mm 3 mps 709 mmHg 64%
    20:00 +17°C° 0 mm 2 mps 709 mmHg 71%
    21:00 +15°C° 0 mm 1 mps 709 mmHg 78%
    22:00 +15°C° 0 mm 1 mps 709 mmHg 78%
    23:00 +13°C° 0 mm 0 mps 709 mmHg 78%

    31 May, Sunday

    Time Temperature Precipitation Wind Pressure Humidity
    00:00 +13°C° 0 mm 0 mps 709 mmHg 78%
    01:00 +13°C° 0 mm 0 mps 709 mmHg 77%
    02:00 +12°C° 0 mm 0 mps 709 mmHg 75%
    03:00 +12°C° 0 mm 0 mps 708 mmHg 73%
    04:00 +13°C° 0 mm 0 mps 709 mmHg 67%
    05:00 +15°C° 0 mm 0 mps 709 mmHg 62%
    06:00 +18°C° 0 mm 1 mps 710 mmHg 56%
    07:00 +18°C° 0 mm 0 mps 710 mmHg 49%
    08:00 +20°C° 0 mm 0 mps 711 mmHg 41%
    09:00 +22°C° 0 mm 0 mps 711 mmHg 34%
    10:00 +23°C° 0 mm 0 mps 711 mmHg 30%
    11:00 +27°C° 0 mm 1 mps 711 mmHg 26%
    12:00 +28°C° 0 mm 1 mps 711 mmHg 22%
    13:00 +28°C° 0 mm 2 mps 711 mmHg 23%
    14:00 +28°C° 0 mm 2 mps 710 mmHg 24%
    15:00 +29°C° 0 mm 3 mps 710 mmHg 24%
    16:00 +27°C° 0 mm 3 mps 710 mmHg 34%
    17:00 +25°C° 0 mm 3 mps 710 mmHg 43%
    18:00 +22°C° 0 mm 3 mps 709 mmHg 53%
    19:00 +21°C° 0 mm 2 mps 709 mmHg 59%
    20:00 +19°C° 0 mm 2 mps 709 mmHg 65%
    21:00 +19°C° 0 mm 1 mps 709 mmHg 70%
    22:00 +18°C° 0 mm 1 mps 709 mmHg 70%
    23:00 +18°C° 0 mm 1 mps 709 mmHg 70%

    1 June, Monday

    Time Temperature Precipitation Wind Pressure Humidity
    00:00 +18°C° 0 mm 1 mps 708 mmHg 70%
    01:00 +18°C° 0 mm 1 mps 708 mmHg 69%
    02:00 +18°C° 0 mm 1 mps 708 mmHg 67%
    03:00 +18°C° 0 mm 1 mps 708 mmHg 65%
    04:00 +20°C° 0 mm 1 mps 708 mmHg 61%
    05:00 +21°C° 0 mm 1 mps 708 mmHg 57%
    06:00 +22°C° 0 mm 1 mps 709 mmHg 53%
    07:00 +24°C° 0 mm 1 mps 709 mmHg 47%
    08:00 +26°C° 0 mm 2 mps 709 mmHg 42%
    09:00 +28°C° 0 mm 2 mps 710 mmHg 36%
    10:00 +29°C° 0 mm 3 mps 709 mmHg 34%
    11:00 +31°C° 0 mm 3 mps 709 mmHg 33%
    12:00 +33°C° 0 mm 4 mps 709 mmHg 31%
    13:00 +33°C° 0 mm 4 mps 709 mmHg 33%
    14:00 +32°C° 0 mm 5 mps 709 mmHg 35%
    15:00 +32°C° 0 mm 5 mps 709 mmHg 37%
    16:00 +29°C° 0 mm 4 mps 708 mmHg 43%
    17:00 +27°C° 0 mm 4 mps 708 mmHg 49%
    18:00 +25°C° 0 mm 3 mps 707 mmHg 55%
    19:00 +24°C° 0 mm 2 mps 707 mmHg 59%
    20:00 +22°C° 0 mm 1 mps 708 mmHg 63%
    21:00 +18°C° 0 mm 0 mps 708 mmHg 67%
    22:00 +18°C° 0 mm 0 mps 708 mmHg 67%
    23:00 +18°C° 0 mm 0 mps 707 mmHg 67%
    Show more